GW5023 Weather Reports


time (UTC)temp
F
wind
direction
speed
knots
gust
knots
rain 1hr
in
rain 24hr
in
rain mn
in
humidity
%
barometer
mb
20260510103013 45 31 0.9 1.7 0.00 0.00 0.00 93 1015.1
20260510101513 46 48 0.9 3.5 0.00 0.00 0.00 93 1014.9
20260510100016 46 69 1.7 2.6 0.00 0.00 0.00 93 1014.7
20260510094532 46 59 0.9 2.6 0.00 0.00 0.00 93 1014.6
20260510093014 46 30 1.7 4.3 0.00 0.00 0.00 93 1014.6
20260510091520 46 167 0.9 1.7 0.00 0.00 0.00 93 1014.5
20260510090015 46 73 0.0 2.6 0.00 0.00 0.00 93 1014.4
20260510084514 46 65 0.0 1.7 0.00 0.00 0.00 93 1014.2
20260510083013 46 60 0.9 1.7 0.00 0.00 0.00 94 1014.2
20260510081516 46 51 0.0 1.7 0.00 0.00 0.00 94 1014.2
20260510080018 45 59 0.0 1.7 0.00 0.00 0.00 94 1014.0
20260510074515 45 61 0.0 1.7 0.00 0.00 0.00 93 1013.9
20260510073019 45 61 0.0 1.7 0.00 0.00 0.00 93 1013.8
20260510071516 45 66 0.0 1.7 0.00 0.00 0.00 93 1013.9
20260510070023 45 66 0.9 1.7 0.00 0.00 0.00 93 1013.9
20260510064516 46 82 0.0 1.7 0.00 0.00 0.00 93 1013.8
20260510063017 46 56 0.9 1.7 0.00 0.00 0.00 93 1014.0
20260510061518 46 72 0.9 1.7 0.00 0.00 0.00 93 1014.1
20260510060018 46 72 0.0 1.7 0.00 0.00 0.00 93 1014.1
20260510054518 47 76 0.0 1.7 0.00 0.00 0.00 93 1014.0
20260510053042 47 74 0.0 1.7 0.00 0.00 0.00 93 1014.0
20260510051520 47 58 0.9 1.7 0.00 0.00 0.00 92 1014.2
20260510050021 47 75 0.0 1.7 0.00 0.00 0.00 92 1014.2
20260510044520 47 61 0.0 1.7 0.00 0.00 0.00 92 1014.2
20260510043033 48 76 0.9 1.7 0.00 0.00 0.00 92 1014.0
20260510041526 48 61 0.9 1.7 0.00 0.00 0.00 92 1014.0
20260510040033 49 79 0.0 2.6 0.00 0.00 0.00 91 1013.7
20260510034520 49 64 0.0 1.7 0.00 0.00 0.00 91 1013.5
20260510033005 49 64 0.0 1.7 0.00 0.00 0.00 91 1013.5
20260510031509 50 62 0.9 1.7 0.00 0.00 0.00 90 1013.4
20260510030012 50 62 0.9 1.7 0.00 0.00 0.00 90 1013.3
20260510024518 50 62 0.0 1.7 0.00 0.00 0.00 89 1013.3
20260510023021 51 60 0.0 1.7 0.00 0.00 0.00 88 1013.1
20260510021519 51 60 0.0 0.9 0.00 0.00 0.00 88 1013.0
20260510020011 52 60 0.9 1.7 0.00 0.00 0.00 86 1012.9
20260510014514 53 71 0.9 1.7 0.00 0.00 0.00 84 1012.4
20260510013024 54 73 0.0 1.7 0.00 0.00 0.00 84 1012.1
20260510011533 54 64 0.9 1.7 0.00 0.00 0.00 82 1011.8
20260510010010 55 76 0.0 1.7 0.00 0.00 0.00 82 1011.6
20260510004517 55 58 0.9 1.7 0.00 0.00 0.00 80 1011.4
20260510003018 57 352 0.0 1.7 0.00 0.00 0.00 75 1011.1
20260510001520 58 5 0.0 1.7 0.00 0.00 0.00 74 1011.0
20260510000008 59 232 0.0 1.7 0.00 0.00 0.00 71 1010.7
20260509234512 61 219 0.9 2.6 0.00 0.00 0.00 68 1010.6
20260509233015 63 351 0.9 2.6 0.00 0.00 0.00 64 1010.6
20260509231522 65 267 0.0 1.7 0.00 0.00 0.00 57 1010.5
20260509230008 66 65 1.7 3.5 0.00 0.00 0.00 52 1010.4
20260509224509 67 88 1.7 3.5 0.00 0.00 0.00 50 1010.6
20260509223014 67 258 1.7 4.3 0.00 0.00 0.00 48 1010.6
20260509221522 67 232 0.0 5.2 0.00 0.00 0.00 47 1010.6
20260509220008 68 339 1.7 8.7 0.00 0.00 0.00 46 1010.4
20260509214508 67 336 2.6 8.7 0.00 0.00 0.00 48 1010.6
20260509213025 67 335 2.6 7.8 0.00 0.00 0.00 47 1010.5
20260509211516 67 269 1.7 8.7 0.00 0.00 0.00 47 1010.4
20260509210020 67 326 2.6 9.6 0.00 0.00 0.00 46 1010.3
20260509204505 67 284 2.6 7.0 0.00 0.00 0.00 47 1010.2
20260509203016 68 190 0.9 7.8 0.00 0.00 0.00 48 1010.0
20260509201515 68 257 2.6 6.1 0.00 0.00 0.00 45 1009.8
20260509200020 69 280 0.9 7.0 0.00 0.00 0.00 46 1009.8
20260509194526 67 360 4.3 7.0 0.00 0.00 0.00 43 1010.0
20260509193016 68 342 8.7 15.6 0.00 0.00 0.00 44 1010.0
20260509191512 68 306 7.8 11.3 0.00 0.00 0.00 42 1009.8
20260509190023 69 313 0.9 10.4 0.00 0.00 0.00 43 1009.6
20260509184533 68 126 3.5 9.6 0.00 0.00 0.00 45 1009.8
20260509183008 68 117 0.9 7.8 0.00 0.00 0.00 46 1010.0
20260509181513 68 103 2.6 5.2 0.00 0.00 0.00 51 1009.8
20260509180019 66 349 1.7 5.2 0.00 0.00 0.00 53 1010.1
20260509174524 66 101 4.3 7.8 0.00 0.00 0.00 52 1010.1
20260509173025 66 67 1.7 5.2 0.00 0.00 0.00 56 1010.3
20260509171509 65 305 0.9 7.8 0.00 0.00 0.00 58 1010.5
20260509170022 64 53 0.9 3.5 0.00 0.00 0.00 57 1010.8
20260509164518 62 140 2.6 5.2 0.00 0.00 0.00 58 1011.0
20260509163032 62 360 1.7 4.3 0.00 0.00 0.00 60 1011.0
20260509161528 62 13 3.5 6.1 0.00 0.00 0.00 59 1010.9
20260509160012 62 269 0.9 9.6 0.00 0.00 0.00 57 1011.1
20260509154518 62 343 2.6 5.2 0.00 0.00 0.00 57 1011.0
20260509153031 62 302 0.9 6.1 0.00 0.00 0.00 59 1010.8
20260509151526 62 331 0.9 6.1 0.00 0.00 0.00 57 1011.2
20260509150011 62 178 3.5 7.8 0.00 0.00 0.00 55 1011.2
20260509144519 62 293 4.3 9.6 0.00 0.00 0.00 56 1011.2
20260509143022 62 271 1.7 6.1 0.00 0.00 0.00 55 1011.0
20260509141524 62 294 1.7 5.2 0.00 0.00 0.00 55 1010.8
20260509140027 63 190 1.7 7.0 0.00 0.00 0.00 53 1010.4
20260509134513 62 360 1.7 3.5 0.00 0.00 0.00 59 1010.5
20260509133021 58 209 1.7 3.5 0.00 0.00 0.00 67 1010.5
20260509131524 56 52 0.0 1.7 0.00 0.00 0.00 73 1010.9
20260509130036 54 53 0.0 2.6 0.00 0.00 0.00 74 1011.2
20260509124535 53 29 0.0 2.6 0.00 0.00 0.00 76 1011.4
20260509123018 52 344 0.0 1.7 0.00 0.00 0.00 79 1011.6
20260509121526 50 81 0.0 1.7 0.00 0.00 0.00 82 1011.6
20260509120024 49 74 0.0 1.7 0.00 0.00 0.00 84 1011.6
20260509114526 48 28 0.0 1.7 0.00 0.00 0.00 85 1011.7
20260509113014 48 93 0.9 1.7 0.00 0.00 0.00 87 1011.7
20260509111521 48 69 0.9 2.6 0.00 0.00 0.00 87 1011.8
20260509110023 47 34 0.9 1.7 0.00 0.00 0.00 88 1011.8
20260509104526 47 71 0.9 2.6 0.00 0.00 0.00 88 1011.8